{"data":{"norad_id":52469,"epoch":"2026-09-19T17:27:10.093824Z","epoch_age_seconds":130021,"freshness":"FRESH","line1":"1 52469U 22049U   26262.72720016  .00000378  00000+0  22817-4 0  9997","line2":"2 52469  53.1593 257.4422 0001165  92.7018 267.4118 15.33549794241680","mean_motion":15.33549794,"eccentricity":0.0001165,"inclination_deg":53.1593,"raan_deg":257.4422,"arg_perigee_deg":92.7018,"mean_anomaly_deg":267.4118,"bstar":2.2817e-5,"rev_number":24168,"period_min":93.899787645239,"perigee_km":464.43414659977,"apogee_km":466.02865143674,"semimajor_km":6843.3683990183,"source":"CELESTRAK","updated_at":"2026-09-20T09:00:40.051199Z"}}